Torna al catalogo

KINEIS-2C

AttivoComunicazioniSSO
NORAD 62929·PAYLOAD·🇫🇷 France

Lanciato Feb 8, 2025 da Rocket Lab Launch Complex 1

Loading…

Prossimi Passaggi (prossime 24 ore)

TLE

AggiornatoSource: Space-Track

Epoca: Sep 14, 2026, 09:59 UTC

1 62929U 25028B   26257.41608870  .00001012  00000-0  16333-3 0  9994
2 62929  98.1159 311.8812 0003453   6.7637 353.3617 14.73564250 85751

Traccia KINEIS-2C in tempo reale con AllMySat

Download on the App Store